STARLINK-31961, 59894

Orbit data source: Space-Track

STARLINK-31961, 59894 is a payload satellite owned by SpaceX/Seattle (US) in LEO that was launched on Tue, 28 May 2024 UTC via an FALCON 9 launch vehicle from the Air Force Eastern Test Range (AFETR). Payload-class satellites include a variety of spacecraft equipped with specific instruments for various scientific and technological missions. These include communications satellites like Starlink; space stations such as the ISS; scientific satellites like the Hubble; Earth observation satellites from companies like Planet Labs, Umbra, and HawkEye 360; GPS; miniature CubeSats for education and research; and military/defense satellites.

Loading next visibility...
Identifier
59894, 2024-100K
Orbit
LEO
Country
Flag of USUS
Related business
Manufacturer
SpaceX/Seattle
Mission
Operational spacecraft
Bus & Motor
STARLINK V2M, Unknown motor
Mass
730 kg wet, ~700 kg dry
Launch date (UTC)
2024-05-28 (1 year ago)
Launch vehicle
FALCON 9
Launch site
Air Force Eastern Test Range (AFETR)
Object type
Payload
Rocket body
Debris
Shape & HBR
Unknown
Radar Cross Section
Large (>1 m²)

Expand to show TLE details & history
Last TLE update: 23 hours ago

TLE from 23 hours ago
0 STARLINK-31961
1 59894U 24100K   25260.06190247 -.00000359  00000-0 -34991-5 0  9996
2 59894  43.0057  18.9571 0001709 281.1457  78.9203 15.27568931 74683
Epoch: 2025-09-17T01:29Z
TLE epoch observation values (Epoch: 2025-09-17T01:29:08.373Z)
Latitude
0.00002°
Longitude
0.42898°
Altitude
482.633 km
Speed
7.626 km/s
True Right ascension
01h 15m 49s
True Declination
0° 00' 00"
Sunlit
Object was in full shadow at epoch
Visualization orbit readout
Latitude
Unknown
Longitude
Unknown
Altitude
Unknown
Speed
Unknown
Apparent Right ascension
Unknown
Apparent Declination
Unknown
Sunlit
N/A
Visualization observer readout
Local Sidereal Time
17:31:23
Azimuth
Unknown
Elevation
Unknown
Doppler factor
Unknown
Orbital elements
Apogee altitude
486.199 km
Perigee altitude
483.854 km
Semi-major axis
6,863.163 km
Eccentricity
0.00017
Inclination
43.0057°
RAAN
18.9571°
Arg. of periapsis
281.1457°
True anomaly
78.93952°
Mean anomaly
78.9203°
Eccentric anomaly
78.92991°
Mean motion
3.8173 °/min
Orbital period
94.31 mins
BSTAR
-0.0000034991
Loading maneuver chart data...
Computing Atmospheric mass density...
Loading historical data...
Loading historical data...
Loading historical data...
Loading historical data...
Loading historical data...
Loading historical data...
Loading historical data...

Documentation

Showing up to 5 results
|